Faro, Portugal

12:59 PM WEST on October 15, 2019 (GMT +0100)
Faro

Weather History for LPFR - September, 2019

Change the Weather History Date:

Tuesday, September 17, 2019

  Actual Average Record
Temperature  
Mean Temperature 70 °F -  
Max Temperature 77 °F 74 °F 86 °F (2018)
Min Temperature 63 °F 60 °F 55 °F (2015)
Cooling Degree Days 5    
Growing Degree Days 20 (Base 50)    
Moisture  
Dew Point 62 °F    
Average Humidity 71    
Maximum Humidity 83    
Minimum Humidity 47    
Precipitation  
Precipitation 0.00 in 0.06 in - ()
Sea Level Pressure  
Sea Level Pressure 29.99 in    
Wind  
Wind Speed 5 mph ()    
Max Wind Speed 18 mph    
Max Gust Speed -    
Visibility 11.9 miles    
Events      
Averages and records for this station are not official NWS values.
T = Trace of Precipitation, MM = Missing Value Source: Averaged Metar Reports

Daily Weather History Graph

Daily Weather History Graph

Search for Another Location

Airport or City:

Astronomy

Sep. 17, 2019 Rise Set
Actual Time 7:15 AM WEST 7:37 PM WEST
Civil Twilight 6:49 AM WEST 8:03 PM WEST
Nautical Twilight 6:18 AM WEST 8:33 PM WEST
Astronomical Twilight 5:47 AM WEST 9:04 PM WEST
Moon 9:37 PM WEST (9/17) 10:03 AM WEST (9/17)
Length of Visible Light 13h 13m
Length of Day
12h 21m
Waning Gibbous, 90% of the Moon is Illuminated
Sep 17
Waning Gibbous
Sep 22
Last Quarter
Sep 28
New
Oct 5
First Quarter
Oct 13
Full

Hourly Weather History & Observations

Time (WEST) Temp. Dew Point Humidity Pressure Visibility Wind Dir Wind Speed Gust Speed Precip Events Conditions
12:00 AM 69.8 °F 62.6 °F 78% 30.01 in - West 2.3 mph - N/A   Clear
12:30 AM 69.8 °F 62.6 °F 78% 30.01 in - West 3.5 mph - N/A   Clear
1:00 AM 71 °F 63 °F 69% 30.03 in 11 mi Calm Calm - -   Clear
1:00 AM 69.8 °F 60.8 °F 73% 30.01 in - West 2.3 mph - N/A   Clear
1:30 AM 69.8 °F 62.6 °F 78% 30.01 in - North 2.3 mph - N/A   Clear
2:00 AM 68.0 °F 60.8 °F 78% 30.01 in - Calm Calm - N/A   Clear
2:30 AM 68.0 °F 62.6 °F 83% 30.01 in - Variable 2.3 mph - N/A   Clear
3:00 AM 70 °F 62 °F 70% 30.01 in - East 2.2 mph - -  
3:00 AM 69.8 °F 60.8 °F 73% 29.98 in - Variable 2.3 mph - N/A   Clear
3:30 AM 68.0 °F 60.8 °F 78% 29.98 in - NE 3.5 mph - N/A   Clear
4:00 AM 69 °F 59 °F 62% 30.00 in 11 mi NNE 2.2 mph - -   Clear
4:00 AM 68.0 °F 60.8 °F 78% 29.98 in - North 2.3 mph - N/A   Clear
4:30 AM 68.0 °F 59.0 °F 73% 29.98 in - NNE 3.5 mph - N/A   Clear
5:00 AM 68.0 °F 59.0 °F 73% 29.98 in - NE 4.6 mph - N/A   Clear
5:30 AM 64.4 °F 57.2 °F 77% 29.98 in - NNE 5.8 mph - N/A   Clear
6:00 AM 64.4 °F 57.2 °F 77% 29.98 in - Variable 2.3 mph - N/A   Clear
6:30 AM 66.2 °F 57.2 °F 73% 29.98 in - North 3.5 mph - N/A   Clear
7:00 AM 67 °F 57 °F 63% 30.00 in 9 mi North 2.2 mph - -   Clear
7:00 AM 66.2 °F 57.2 °F 73% 29.98 in - North 5.8 mph - N/A   Clear
7:30 AM 66.2 °F 57.2 °F 73% 29.98 in - North 4.6 mph - N/A   Clear
8:00 AM 68.0 °F 57.2 °F 68% 29.98 in - NNE 4.6 mph - N/A   Clear
8:30 AM 71.6 °F 62.6 °F 73% 29.98 in - Variable 1.2 mph - N/A   Clear
9:00 AM 71.6 °F 64.4 °F 78% 29.98 in - ESE 3.5 mph - N/A   Clear
9:30 AM 71.6 °F 66.2 °F 83% 30.01 in - SSE 5.8 mph - N/A   Clear
10:00 AM 74 °F 66 °F 68% 30.03 in 12 mi North 2.2 mph - -   Clear
10:00 AM 73.4 °F 66.2 °F 78% 30.01 in - SSW 3.5 mph - N/A   Clear
10:30 AM 73.4 °F 64.4 °F 73% 30.01 in - South 4.6 mph - N/A   Clear
11:00 AM 74 °F 63 °F 60% 30.04 in - WSW 6.7 mph - -  
11:00 AM 73.4 °F 64.4 °F 73% 30.01 in - SW 6.9 mph - N/A   Clear
11:30 AM 73.4 °F 64.4 °F 73% 30.01 in - WSW 10.4 mph - N/A   Clear
12:00 PM 76 °F 60 °F 47% 30.02 in - West 6.7 mph - -  
12:00 PM 77.0 °F 60.8 °F 57% 30.01 in - WSW 8.1 mph - N/A   Clear
12:30 PM 75.2 °F 60.8 °F 61% 30.01 in - WSW 10.4 mph - N/A   Clear
1:00 PM 77 °F 62 °F 51% 30.02 in - WSW 5.8 mph - -  
1:00 PM 73.4 °F 62.6 °F 69% 29.98 in - WSW 10.4 mph - N/A   Clear
1:30 PM 77.0 °F 60.8 °F 57% 29.98 in - WSW 11.5 mph - N/A   Clear
2:00 PM 76 °F 62 °F 52% 30.00 in - West 11.2 mph - -  
2:00 PM 75.2 °F 60.8 °F 61% 29.98 in - WSW 11.5 mph - N/A   Clear
2:30 PM 75.2 °F 62.6 °F 65% 29.98 in - WSW 10.4 mph - N/A   Clear
3:00 PM 76 °F 64 °F 59% 29.99 in - WSW 8.9 mph - -  
3:00 PM 75.2 °F 64.4 °F 69% 29.98 in - WSW 10.4 mph - N/A   Clear
3:30 PM 75.2 °F 64.4 °F 69% 29.98 in - WSW 11.5 mph - N/A   Clear
4:00 PM 75 °F 64 °F 61% 29.99 in 16 mi WSW 13.4 mph - -   Clear
4:00 PM 75.2 °F 64.4 °F 69% 29.98 in - WSW 12.7 mph - N/A   Clear
4:30 PM 75.2 °F 64.4 °F 69% 29.95 in - WSW 13.8 mph - N/A   Clear
5:00 PM 74 °F 64 °F 65% 29.98 in - WSW 13.4 mph - -  
5:00 PM 73.4 °F 64.4 °F 73% 29.95 in - WSW 12.7 mph - N/A   Clear
5:30 PM 73.4 °F 64.4 °F 73% 29.95 in - WSW 13.8 mph - N/A   Clear
6:00 PM 73.4 °F 64.4 °F 73% 29.95 in - WSW 13.8 mph - N/A   Clear
6:30 PM 71.6 °F 64.4 °F 78% 29.95 in - WSW 13.8 mph - N/A   Clear
7:00 PM 72 °F 65 °F 71% 29.97 in 12 mi West 8.1 mph - -   Clear
7:30 PM 71.6 °F 64.4 °F 78% 29.95 in - West 13.8 mph - N/A   Clear
8:00 PM 71 °F 65 °F 76% 29.97 in - West 15.7 mph - -  
8:00 PM 69.8 °F 64.4 °F 83% 29.95 in - West 12.7 mph - N/A   Clear
8:30 PM 69.8 °F 64.4 °F 83% 29.95 in - West 12.7 mph - N/A   Clear
9:00 PM 71 °F 64 °F 71% 29.99 in - West 17.9 mph - -  
9:00 PM 71.6 °F 64.4 °F 78% 29.95 in - West 15.0 mph - N/A   Clear
9:30 PM 69.8 °F 64.4 °F 83% 29.95 in - West 15.0 mph - N/A   Clear
10:00 PM 71 °F 62 °F 65% 29.99 in 12 mi West 13.4 mph - -   Clear
10:00 PM 69.8 °F 60.8 °F 73% 29.98 in - West 13.8 mph - N/A   Clear
10:30 PM 69.8 °F 60.8 °F 73% 29.98 in - West 11.5 mph - N/A   Clear
11:30 PM 68.0 °F 59.0 °F 73% 29.98 in - NW 10.4 mph - N/A   Clear